Regional Weather Roundup
Issued by NWS Grand Forks, ND

Home | Current Version | Previous Version | Graphics & Text | Print | Product List | Glossary On
Versions: 1 2 3 4 5 6 7 8 9 10 11 12 13 14 15 16 17 18 19 20 21 22 23 24 25 26 27 28 29 30 31 32 33 34 35 36 37 38 39 40 41 42 43 44 45 46 47 48 49 50
000
ASUS43 KFGF 140731
RWRFGF
PRAIRIE TO PINES  WEATHER ROUNDUP
NATIONAL WEATHER SERVICE EASTERN NORTH DAKOTA/GRAND FORKS ND
200 AM CDT MON JUL 14 2014

 **SATELLITE DATA USED TO AUGMENT SKY COVER AT AUTOMATED STATIONS**
 *****  WEATHER ACROSS EASTERN NORTH DAKOTA  *****

CITY           SKY/WX    TMP DP  RH WIND       PRES   REMARKS
GRAND FORKS    HVY RAIN  52  49  89 NW17G25   29.97R FOG
GRAND FRKS AFB MOCLDY    52  52  99 N15G21    29.99R
GRAND FRKS NWS   N/A     50 N/A N/A N14         N/A
DEVILS LAKE    CLOUDY    54  46  76 N13G20    30.04R
FARGO          CLOUDY    56  49  77 N15       29.97R
WAHPETON ARPT  CLOUDY    61  43  51 NW13      29.96S
$$

 ***** WEATHER ACROSS CENTRAL AND WESTERN NORTH DAKOTA  *****

CITY           SKY/WX    TMP DP  RH WIND       PRES   REMARKS
BISMARCK       CLEAR     58  47  66 N12       30.13R
MINOT          CLEAR     54  44  69 NW14      30.14R
JAMESTOWN      CLEAR     57  45  64 NW10      30.03S
MINOT AFB      CLEAR     55  46  73 NW12      30.14R
GARRISON         N/A     55  50  83 N8        30.15R
WILLISTON      CLEAR     53  46  77 N5        30.22R
DICKINSON      CLEAR     48  42  80 W6        30.19R
HETTINGER      CLEAR     45  42  89 NW5       30.20R
$$

 *****  OTHER AIRPORT OBSERVATIONS IN OUR AREA  *****

CITY           SKY/WX    TMP DP  RH WIND       PRES   REMARKS
WALHALLA         N/A     48  48 100 N16G22      N/A
GRAFTON AIRPOR FAIR      50  48  93 N14G22    30.00R
VALLEY CITY AR CLOUDY    57  46  67 NW14      30.02R
CANDO          CLOUDY    54  50  87 N17G29    30.08R
CAVALIER APRT  FAIR      50  46  87 NW14      30.01R
GWINNER        CLOUDY    61  46  59 NW10      30.01S
ROLLA          CLOUDY    50  50 100 N15       30.10R
 ***** THE ABOVE OBSERVATIONS ARE NON NWS ARE NOT QUALITY
       CONTROLLED AND MAY MIS-REPORT RAIN FOR SNOW...
$$

  *****  WEATHER ACROSS NORTHERN MINNESOTA  *****

CITY           SKY/WX    TMP DP  RH WIND       PRES   REMARKS
FLAG ISLAND    CLOUDY    54  50  87 N21       29.86R
WARROAD        CLOUDY    48  45  87 NW14      29.90R
ROSEAU         CLOUDY    48  43  81 NW12      29.92R
HALLOCK        MOCLDY    52  46  82 N17       29.98R
THF RVR FALLS  CLOUDY    52  46  82 NW16G28   29.93R
BAUDETTE       LGT RAIN  51  48  89 NW14G22   29.84S
WASKISH        CLOUDY    52  48  87 NW16G24   29.86S
CROOKSTON      MOCLDY    50  48  93 N15       29.96S
$$
  *****  WEATHER ACROSS CENTRAL AND WEST MINNESOTA  *****

CITY           SKY/WX    TMP DP  RH WIND       PRES   REMARKS
FOSSTON        CLOUDY    48  48 100 NW8       29.93S
BEMIDJI        LGT RAIN  49  47  92 NW12G20   29.89S
PARK RAPIDS    CLOUDY    57  46  66 W15       29.89F
ELBOW LAKE     PTSUNNY   59  46  63 NW12      29.94F
WADENA         CLOUDY    57  46  67 NW9       29.91F
DETROIT LAKES  MOCLDY    57  46  67 NW16G23   29.94S
MOORHEAD       CLOUDY    59  52  77 N18G24    29.97R
FERGUS FALLS   MOCLDY    57  45  62 NW14G20   29.95S
MORRIS MN      CLOUDY    59  52  77 NW8       29.94F
STAPLES        CLOUDY    57  46  67 W8        29.90F
$$
  *****  WEATHER ELSEWHERE ACROSS MINNESOTA  *****

CITY           SKY/WX    TMP DP  RH WIND       PRES   REMARKS
DULUTH         PTCLDY    50  47  89 W8        29.84F
INTRNTL FALLS  CLOUDY    49  48  97 W8        29.79F
ELY            CLOUDY    52  48  87 SW6       29.80S
CLOQUET        CLEAR     52  48  87 W6        29.85F
WHEATON        CLOUDY    61  48  63 W8        29.98F
BRAINERD       CLOUDY    63  48  58 W9        29.89F
HIBBING        LGT RAIN  54  49  83 W7        29.82F
ALEXANDRIA     CLOUDY    62  46  55 NW17      29.94F
SAINT CLOUD    PTCLDY    57  49  74 CALM      29.90F
MINNEAPOLIS    MOCLDY    65  50  58 NW7       29.89F
$$

  *****  WEATHER ACROSS SOUTH DAKOTA  *****

CITY           SKY/WX    TMP DP  RH WIND       PRES   REMARKS
SIOUX FALLS    CLEAR     57  48  72 NW9       30.00S
BROOKINGS      NOT AVBL
WATERTOWN      CLEAR     58  50  75 NW9       29.99F
HURON          CLEAR     53  48  83 W8        30.02S
SISSETON         N/A     59  51  75 N8        29.97F
ABERDEEN       CLEAR     52  47  83 NW9       30.03S
MITCHELL       CLEAR     57  48  72 W7        30.04S
PIERRE         CLEAR     54  48  80 NW7       30.09R
MOBRIDGE       CLEAR     55  48  77 N10       30.09R
RAPID CITY     CLEAR     57  52  83 N8        30.19S
$$

  *****  SOME WEATHER IN NEARBY STATES *****

CITY           SKY/WX    TMP DP  RH WIND       PRES   REMARKS
GLASGOW MT     CLEAR     54  44  69 NE12      30.27R
GREAT FALLS MT CLEAR     66  48  52 E9        30.26S
CHEYENNE WY    CLEAR     59  53  80 W9        30.31F
SCOTTSBLUFF NE CLOUDY    70  57  63 NE8       30.18S
OMAHA NE       PTCLDY    72  67  84 NW9       29.97S
DES MOINES IA  PTCLDY    71  66  84 SW3       29.92F
DAVENPORT IA     N/A     65  62  90 S3        29.91F
CHICAGO IL     PTCLDY    68  51  54 NW6       29.90F
EAU CLAIRE WI  CLEAR     57  53  86 SW5       29.85F
LA CROSSE WI   CLEAR     62  57  83 S7        29.87F
$$

  *****  SOME NATIONAL WEATHER *****

CITY           SKY/WX    TMP DP  RH WIND       PRES   REMARKS
LA GUARDIA NY  CLOUDY    74  70  87 S9        29.88F
RALEIGH NC     PTCLDY    77  70  79 SW8       30.02S
ATLANTA GA     PTCLDY    75  70  84 SW3       30.06F
NEW ORLEANS LA PTCLDY    78  74  87 SE3       30.02F
OKLAHOMA CITY  MOCLDY    75  66  73 CALM      30.00S
ALBUQUERQUE NM CLOUDY    72  54  53 NE5       30.30R
SALT LAKE CITY MOCLDY    77  49  37 W6        30.08F
LOS ANGELES CA MOCLDY    70  63  78 SE8       29.93S
BOISE ID       MOCLDY    86  46  24 SE6       29.93F
SEATTLE WA     MOCLDY    67  58  72 S13       30.10R
$$

*** WEATHER ACROSS MANITOBA...SASKATCHEWAN AND ONTARIO ***
                ***ONTARIO***

CITY           SKY/WX    TMP DP  RH WIND       PRES   REMARKS
GERALDTON      MOCLDY    52  50  93 W3        29.74S
THUNDER BAY    PTCLDY    48  48 100 W5        29.78S
SIOUX LOOKOUT  PTCLDY    46  46 100 N3        29.80
TORONTO        MOCLDY    66  48  52 N12       29.88S
BIG TROUT LK   CLOUDY    48  45  87 N10G21    29.90S
PICKLE LAKE    NOT AVBL
DRYDEN         CLOUDY    50  48  93 N8        29.79S
KENORA         LGT RAIN  50  48  93 N10       29.86R
$$
                *** MANITOBA***

CITY           SKY/WX    TMP DP  RH WIND       PRES   REMARKS
BRANDON        CLOUDY    52  48  87 N13       30.12R
DAUPHIN        CLOUDY    54  48  82 NE9       30.16R
ISLAND LAKE    MOCLDY    54  50  87 NE10      30.07R
PILOT MOUND      N/A     50  48  93 N14G22      N/A
THE PAS        CLEAR     57  52  82 NW6       30.23R
THOMPSON       MOCLDY    52  50  93 N7        30.21R
WINNIPEG       PTCLDY    46  45  93 NW13G20   30.02R
LYNN LAKE      CLEAR     48  46  93 N7        30.28R
CHURCHILL      MOCLDY    45  43  93 NW10      30.22F
GILLAM         MOCLDY    48  45  87 N12       30.18R
$$
                ***SASKATCHEWAN***

CITY           SKY/WX    TMP DP  RH WIND       PRES   REMARKS
ESTEVAN        CLEAR     52  46  82 N10       30.22R
KINDERSLEY     CLEAR     50  46  87 E7        30.33R
LLOYDMINSTER   CLEAR     50  43  76 SE5       30.32R
PRINCE ALBERT  CLEAR     48  45  87 NE3       30.31R
REGINA         CLEAR     55  48  76 N13       30.27
YORKTON        CLEAR     52  46  82 N12G17    30.22R
N. BATTLEFORD  CLEAR     50  45  81 CALM      30.33R
LA RONGE       CLEAR     48  46  93 CALM      30.32R
SASKATOON      CLEAR     52  46  82 NE8       30.32R
SWIFT CURRENT  CLEAR     52  45  76 SE3       30.31R
$$
NOTE: THESE ARE AUTOMATED STATIONS WITH LIMITED QUALITY CONTROL
      "FAIR" INDICATES FEW OR NO CLOUDS BELOW 12,000 FEET WITH NO
      SIGNIFICANT WEATHER AND/OR OBSTRUCTIONS TO VISIBILITY.
      SKY/WX - SKY CONDITION AND SIGNIFICANT WEATHER.
      TMP - AIR TEMPERATURE.    DP   - DEWPOINT TEMPERATURE.
      RH  - RELATIVE HUMIDITY.  PRES - PRESSURE.
      HX  - HEAT INDEX.         WCI  - WIND CHILL INDEX.
$



USA.gov is the U.S. government's official web portal to all federal, state and local government web resources and services.